[[{"header":{"parameterUnit":"m.s-1","parameterCategory":1,"la1":30.2991,"la2":30.254,"lo1":-89.0895,"lo2":-89.0444,"dy":0.0017,"dx":0.0017,"nx":28,"ny":28,"refTime":"2023-08-11T09:00:00:Z","depth":0,"parameterNumber":2,"parameterNumberName":"U-component_of_WINDS"},"data":[0,0,0,0,0,0,0,0,0,0,0,0,0,0,0,0,0,0,0,0,0,0,0,0,0,0,0,0,0,0,0,0,0,0,0,0,0,0,0,0,0,0,0,0,0,0,0,0,0,0,0,0,0,0,0,0,0,0,4.4754,4.4755,0,4.4853,4.4854,4.4855,4.4828,4.4826,4.4824,4.4822,4.4926,4.4931,4.4935,0,0,0,0,0,0,0,0,0,0,0,0,0,4.4545,4.4549,4.4754,4.4755,4.4756,4.4853,4.4854,4.4855,4.4828,4.4826,4.4823,4.4821,4.4925,4.493,4.4936,0,0,0,0,0,0,0,0,0,0,0,0,0,4.4639,4.455,4.4754,4.4754,4.4755,4.4852,4.4854,4.4856,4.4829,4.4826,4.4823,4.482,4.4923,4.493,4.4937,4.504,0,0,4.4958,4.4961,0,0,0,0,0,0,0,0,4.4633,4.4647,4.4753,4.4754,4.4756,4.4825,4.4818,4.4918,4.4829,4.4801,4.4822,4.4818,4.4895,4.4904,4.493,4.5045,4.5049,4.4959,4.4963,4.4966,4.4968,0,0,0,0,0,0,0,4.4627,4.4642,4.4793,4.4755,4.4756,4.4751,4.4761,4.4837,4.4864,4.4803,4.4801,4.4813,4.4895,4.4923,4.4932,4.5051,4.4958,4.4965,4.4969,4.4972,4.5257,4.526,0,0,0,0,0,0,4.4619,4.4637,4.479,4.4796,4.4686,4.4757,4.4768,4.4806,4.4863,4.4869,4.4816,4.4812,4.4912,4.4924,4.4935,4.506,4.4966,4.4972,4.4976,4.5253,4.5258,4.5261,0,0,0,0,0,0,4.4615,4.4633,4.4786,4.4716,4.4735,4.4764,4.4806,4.4809,4.4837,4.4872,4.4877,4.4839,4.491,4.4926,4.5014,4.5064,4.4975,4.4982,4.5249,4.5255,4.5259,4.5311,0,0,0,0,0,0,4.4609,4.4631,4.467,4.4717,4.4739,4.4862,4.4809,4.4813,4.4848,4.4844,4.4895,4.4901,4.4909,4.5004,4.5021,4.5072,4.4987,4.5245,4.5252,4.5258,4.5305,4.5317,4.5328,0,0,0,0,0,4.4601,4.4682,4.4672,4.4691,4.4788,4.4865,4.4878,4.4885,4.4852,4.4892,4.4915,4.4899,4.5055,4.5013,4.5032,4.5086,4.5242,4.525,4.5257,4.53,4.5315,4.5327,0,0,0,0,0,0,4.4641,4.4688,4.4678,4.4776,4.4816,4.486,4.4911,4.49,4.4952,4.4946,4.4953,4.4965,4.5056,4.508,4.5032,4.5189,4.5144,4.5156,4.517,4.5185,4.5196,4.5188,4.4993,0,0,0,0,0,4.4661,4.4719,4.4757,4.4839,4.486,4.4882,4.4916,4.4918,4.4961,4.4978,4.5008,4.5051,4.511,4.5149,4.5205,4.5308,4.532,4.5355,4.5366,4.5375,4.5385,4.5442,4.5458,4.5286,4.5286,4.5286,0,0,4.4703,4.4735,4.4772,4.4848,4.488,4.4941,4.4897,4.4963,4.5008,4.4989,4.5074,4.5097,4.5146,4.5243,4.5287,4.5265,4.5435,4.5385,4.5392,4.5397,4.5452,4.5468,4.5482,4.5291,4.5291,4.529,0,0,4.481,4.4841,4.4913,4.4945,4.4994,4.5008,4.5025,4.5071,4.5085,4.5171,4.5157,4.5212,4.5313,4.5349,4.538,4.5501,4.5488,4.5519,4.5579,4.5634,4.5647,4.566,4.5703,4.5718,4.5529,4.553,4.553,0,4.4856,4.4946,4.4951,4.5018,4.5053,4.5037,4.511,4.5142,4.5207,4.5232,4.5207,4.5333,4.5365,4.547,4.5499,4.5525,4.5546,4.5513,4.5645,4.5657,4.5668,4.571,4.5726,4.5533,4.5533,4.5532,4.5532,0,4.5001,4.5064,4.5116,4.5178,4.5218,4.5288,4.5305,4.5345,4.5344,4.5361,4.5448,4.5486,4.555,4.5575,4.5574,4.568,4.5665,4.5643,4.5598,4.5688,4.5727,4.5743,4.5538,4.5537,4.5536,4.5535,0,0,4.5136,4.5199,4.5219,4.5247,4.5299,4.5348,4.5418,4.5479,4.5514,4.5559,4.5618,4.5704,4.5684,4.5719,4.5723,4.5772,4.5866,4.5743,4.5745,4.5765,4.5984,4.6001,4.6019,4.5858,4.5861,4.5863,4.598,0,4.5248,4.5369,4.5376,4.5487,4.5545,4.5531,4.5592,4.5632,4.5649,4.5702,4.5723,4.5783,4.5751,4.5773,4.582,4.5844,4.591,4.5836,4.5913,4.5916,4.5901,4.6039,4.6057,4.6166,4.5995,4.5998,4.6,0,4.5394,4.5443,4.556,4.5604,4.5629,4.5683,4.574,4.579,4.5835,4.5845,4.5884,4.5881,4.5954,4.5906,4.6007,4.5956,4.5989,4.6005,4.601,4.6017,4.5963,4.605,4.62,4.6217,4.6024,4.6022,4.602,0,4.5481,4.5576,4.5658,4.5683,4.5736,4.5775,4.58,4.5841,4.5878,4.5928,4.5951,4.601,4.6042,4.6087,4.61,4.6064,4.62,4.6154,4.6211,4.6211,4.624,4.6238,4.6397,4.6261,4.6261,4.6261,4.6261,0,4.5605,4.5677,4.5698,4.5748,4.5828,4.5836,4.5915,4.5938,4.5975,4.603,4.6022,4.6074,4.6088,4.6143,4.6154,4.6236,4.625,4.6261,4.6263,4.6261,4.626,4.6282,4.6275,4.6265,4.6264,4.6263,4.6263,0,4.5716,4.5732,4.5821,4.5864,4.5877,4.5934,4.5972,4.6021,4.6037,4.6107,4.6124,4.6151,4.6215,4.6233,4.631,4.6318,4.6414,4.6409,4.6398,4.6398,4.6454,4.6448,4.6633,4.6658,4.6506,4.6507,4.6508,0,4.5794,4.5848,4.5898,4.5933,4.5959,4.6017,4.6054,4.6064,4.6103,4.6158,4.6201,4.6264,4.6314,4.6418,4.6445,4.6505,4.6501,4.6562,4.651,4.6507,4.6502,4.6498,4.6504,4.6571,4.6573,4.6574,4.6575,0,4.5931,4.5936,4.5989,4.6045,4.6089,4.6134,4.6177,4.6207,4.6223,4.6267,4.6332,4.6372,4.645,4.6513,4.6573,4.6599,4.6591,4.6591,4.6608,4.6607,4.6598,4.6603,4.6425,4.6587,4.6586,4.6585,4.6584,4.6584,4.6027,4.6075,4.6117,4.6176,4.6209,4.625,4.6298,4.632,4.6374,4.6438,4.6441,4.6512,4.6556,4.6635,4.6665,4.6721,4.6703,4.6727,4.6733,4.6738,4.6743,4.6589,4.6732,4.6732,4.6731,4.6731,4.6731,0,4.6163,4.619,4.6244,4.6304,4.6351,4.6337,4.6384,4.6425,4.6487,4.6528,4.6578,4.6653,4.6714,4.6746,4.6807,4.6845,4.6843,4.6861,4.6858,4.6864,4.6756,4.6735,4.6862,4.6862,4.6862,4.6862,4.6862,4.6862,4.624,4.632,4.6331,4.6428,4.6454,4.6522,4.655,4.6588,4.662,4.6704,4.6754,4.6774,4.6812,4.6876,4.6931,4.6939,4.6962,4.6982,4.6988,4.6886,4.6872,4.6859,4.684,4.6987,4.6987,4.7092,4.7093,4.7094]},{"header":{"parameterUnit":"m.s-1","parameterCategory":1,"la1":30.2991,"la2":30.254,"lo1":-89.0895,"lo2":-89.0444,"dy":0.0017,"dx":0.0017,"nx":28,"ny":28,"refTime":"2023-08-11T09:00:00:Z","depth":0,"parameterNumber":3,"parameterNumberName":"V-component_of_WINDS"},"data":[0,0,0,0,0,0,0,0,0,0,0,0,0,0,0,0,0,0,0,0,0,0,0,0,0,0,0,0,0,0,0,0,0,0,0,0,0,0,0,0,0,0,0,0,0,0,0,0,0,0,0,0,0,0,0,0,0,0,2.0617,2.0617,0,2.0615,2.0615,2.0615,2.0599,2.0598,2.0598,2.0597,2.0596,2.0596,2.0597,0,0,0,0,0,0,0,0,0,0,0,0,0,2.0604,2.0604,2.0617,2.0617,2.0617,2.0615,2.0615,2.0615,2.0599,2.0598,2.0598,2.0597,2.0596,2.0596,2.0597,0,0,0,0,0,0,0,0,0,0,0,0,0,2.0607,2.0604,2.0617,2.0608,2.0607,2.0615,2.0615,2.0615,2.0599,2.0598,2.0598,2.0597,2.0596,2.0596,2.0597,2.0612,0,0,2.0598,2.0598,0,0,0,0,0,0,0,0,2.0607,2.0607,2.0609,2.0609,2.0608,2.0607,2.061,2.0614,2.0599,2.0602,2.0597,2.0597,2.06,2.06,2.0601,2.0612,2.0612,2.0598,2.0599,2.0599,2.0599,0,0,0,0,0,0,0,2.0606,2.0607,2.0616,2.0609,2.0609,2.0604,2.0604,2.0611,2.0605,2.0602,2.0601,2.0601,2.0599,2.0601,2.0601,2.0612,2.0598,2.0599,2.0599,2.0599,2.0635,2.0636,0,0,0,0,0,0,2.0607,2.0607,2.0616,2.0616,2.0606,2.0605,2.0605,2.0608,2.0604,2.0603,2.0601,2.06,2.06,2.06,2.0601,2.0618,2.0599,2.0599,2.06,2.0635,2.0635,2.0636,0,0,0,0,0,0,2.0607,2.0608,2.0616,2.0611,2.0612,2.0606,2.0609,2.0608,2.0609,2.0604,2.0603,2.0604,2.06,2.06,2.0609,2.0618,2.06,2.06,2.0634,2.0635,2.0636,2.0654,0,0,0,0,0,0,2.0607,2.0608,2.0615,2.0612,2.0612,2.0625,2.061,2.0608,2.061,2.0608,2.0606,2.0605,2.0599,2.0609,2.061,2.0619,2.06,2.0633,2.0634,2.0636,2.0653,2.0656,2.0658,0,0,0,0,0,2.0607,2.062,2.0615,2.0616,2.062,2.0626,2.0626,2.0619,2.0611,2.0617,2.0613,2.0605,2.0617,2.061,2.0611,2.062,2.0633,2.0634,2.0635,2.0651,2.0655,2.0658,0,0,0,0,0,0,2.0624,2.0619,2.0614,2.0627,2.0627,2.0623,2.063,2.0623,2.0625,2.0624,2.0615,2.0614,2.0625,2.0623,2.0615,2.0635,2.0623,2.0625,2.0635,2.0638,2.0641,2.0641,2.0601,0,0,0,0,0,2.063,2.0635,2.063,2.0642,2.0642,2.0636,2.0639,2.0633,2.0633,2.0633,2.063,2.063,2.0633,2.0636,2.0639,2.0653,2.0651,2.0659,2.0662,2.0664,2.0665,2.0672,2.0675,2.0641,2.0641,2.0641,0,0,2.0641,2.0639,2.0643,2.0646,2.0645,2.065,2.0636,2.0643,2.0647,2.0634,2.0642,2.064,2.0639,2.065,2.0655,2.0649,2.0675,2.0666,2.0668,2.0668,2.0674,2.0677,2.068,2.0642,2.0642,2.0642,0,0,2.0664,2.0663,2.0673,2.0672,2.0671,2.0667,2.0669,2.0666,2.0664,2.0673,2.0663,2.0667,2.0674,2.0673,2.0674,2.0696,2.0688,2.0697,2.0711,2.0717,2.072,2.0722,2.0729,2.0732,2.0699,2.0699,2.0699,0,2.0678,2.0686,2.0678,2.0685,2.0686,2.0675,2.0684,2.0684,2.0684,2.0685,2.0678,2.0686,2.0685,2.0695,2.0701,2.0702,2.0704,2.0697,2.072,2.0723,2.0725,2.0731,2.0734,2.07,2.07,2.07,2.07,0,2.0703,2.0708,2.0716,2.0716,2.0718,2.0726,2.0719,2.0722,2.0717,2.0713,2.0721,2.0719,2.0721,2.0723,2.0718,2.0733,2.0729,2.0722,2.071,2.0729,2.0735,2.0738,2.0702,2.0701,2.0701,2.0701,0,0,2.0737,2.0732,2.0735,2.0735,2.0733,2.0737,2.0744,2.0746,2.0748,2.0749,2.0754,2.076,2.0752,2.0753,2.0748,2.0753,2.077,2.0745,2.0744,2.0749,2.0785,2.079,2.0794,2.0765,2.0765,2.0766,2.0785,0,2.0758,2.077,2.0763,2.0776,2.0781,2.077,2.0776,2.0775,2.0772,2.0775,2.0771,2.0775,2.0765,2.0766,2.0771,2.0767,2.0777,2.0765,2.0769,2.0769,2.0769,2.0797,2.0803,2.0821,2.0787,2.0788,2.0788,0,2.0785,2.0786,2.0799,2.0796,2.0797,2.0803,2.0804,2.0807,2.0806,2.0803,2.0803,2.0796,2.0803,2.0792,2.08,2.0792,2.0793,2.0792,2.0792,2.0792,2.0779,2.0796,2.0827,2.0829,2.0792,2.0792,2.0791,0,2.0807,2.0813,2.0821,2.0821,2.0817,2.0821,2.082,2.0818,2.0819,2.082,2.0821,2.0822,2.0823,2.0824,2.0818,2.081,2.0826,2.0815,2.0824,2.0824,2.0827,2.0827,2.0857,2.0829,2.0829,2.0829,2.0829,0,2.0832,2.084,2.0831,2.0836,2.0844,2.0836,2.0845,2.0843,2.0841,2.0845,2.0836,2.084,2.0831,2.0834,2.0829,2.0836,2.0837,2.0834,2.0832,2.0834,2.0835,2.0835,2.0833,2.083,2.083,2.0829,2.0829,0,2.0858,2.0852,2.086,2.0856,2.0855,2.0862,2.0858,2.0862,2.0858,2.0863,2.0864,2.0857,2.086,2.0854,2.0856,2.0853,2.0863,2.0859,2.0863,2.0862,2.087,2.0869,2.0901,2.0905,2.0875,2.0875,2.0876,0,2.0874,2.088,2.0876,2.0878,2.0877,2.088,2.0881,2.0874,2.0875,2.0874,2.0878,2.088,2.0881,2.0887,2.0882,2.0884,2.088,2.0891,2.088,2.0881,2.0879,2.0878,2.0879,2.0893,2.0893,2.0894,2.0894,0,2.0901,2.0898,2.09,2.0901,2.0903,2.0903,2.0903,2.0905,2.0897,2.0899,2.0902,2.0903,2.0905,2.0907,2.0907,2.0906,2.0898,2.0897,2.0899,2.0901,2.0902,2.0901,2.0868,2.0897,2.0896,2.0896,2.0896,2.0896,2.0922,2.0927,2.0924,2.0927,2.0926,2.0926,2.0929,2.0925,2.0928,2.0929,2.0924,2.0928,2.0926,2.0925,2.0924,2.0927,2.0922,2.0925,2.0925,2.0926,2.0927,2.0903,2.0927,2.0927,2.0927,2.0927,2.0927,0,2.0949,2.0947,2.0949,2.0949,2.0951,2.0944,2.0943,2.0945,2.0948,2.0947,2.0948,2.0951,2.0953,2.0948,2.0949,2.0952,2.0949,2.0953,2.0952,2.0952,2.0932,2.093,2.0956,2.0956,2.0955,2.0955,2.0955,2.0955,2.0963,2.0969,2.0966,2.0972,2.097,2.0973,2.0973,2.0973,2.0972,2.0975,2.0977,2.0974,2.0971,2.0972,2.0973,2.0972,2.0972,2.0977,2.0975,2.0956,2.0953,2.095,2.0948,2.0978,2.0978,2.0994,2.0994,2.0994]}]]